www.pogodaiklimat.ru

Погода и климат >> Архив погоды >> Молдова >> Кишинев


АРХИВ ПОГОДЫ в Кишиневе

Время (UTC), дата Ветер
(напр.,м/с)
 
Видим.   Явления Облачность Т
(С)
Тd
(С)
f
(%)
Тe
(С)
Тes
(С)
Комфортность P
(гПа)
Po
(гПа)
Тmin
(С)
Tmax
(С)
R
(мм)
R24
(мм)
S
(см)
06 19.04 СВ 3 20 км 10/0
[Ac und]
+5.1 -3.9 52 +2 +4 прохладно 1017.8 996.9 +1.4
09 19.04 В 2 20 км 10/0
[Ac und]
+7.7 -3.5 45 +6 +11 прохладно 1019.2 998.4
12 19.04 В 4 20 км 10/0
[Ac und]
+9.7 -6.2 32 +8 +10 холодно 1018.8 998.2
15 19.04 ЮВ 4 20 км 10/5 600 м
[Sc Ac As]
+10.1 -5.8 32 +8 +8 прохладно 1018.6 998.0
18 19.04 Ю 2 20 км 10/4 600 м
[Sc Ac As]
+8.1 -2.2 48 +7 +7 прохладно 1019.2 998.5 +10.9
21 19.04 ЮВ 4 20 км слабый дождь 10/10 600 м
[Sc As op]
+6.8 +0.7 65 +4 +4 прохладно 1019.0 998.2
00 20.04 В 6 10 км дождь 10/0 600 м
[As op]
+3.9 +2.4 90 -2 -2 очень
холодно
1019.3 998.3
03 20.04 В 5 1000 м снег {ливн. осадки} 10/0 600 м
[As op]
-0.1 -0.8 95 -6 -6 очень
холодно
1019.4 998.0
06 20.04 В 5 500 м ливневой дождь со снегом ?/? -0.3 -0.9 96 -7 -7 очень
холодно
1018.9 997.5 -0.3 22 9
09 20.04 СВ 5 500 м дождь со снегом {ливн. осадки} 10/0 300 м
[As op]
-0.3 -0.9 96 -7 -5 очень
холодно
1018.5 997.1
12 20.04 СВ 5 1000 м дождь со снегом {ливн. осадки} 10/10 600 м
[Frnb Ns]
-0.2 -0.6 97 -7 -7 очень
холодно
1017.2 995.9
15 20.04 СВ 4 1000 м дождь со снегом 10/0 600 м
[As op]
-0.3 -0.7 97 -6 -6 очень
холодно
1015.5 994.2
18 20.04 СВ 5 1000 м дождь со снегом 10/0 600 м
[As op]
-0.2 -0.6 97 -7 -7 очень
холодно
1014.7 993.4 -0.2 18
21 20.04 С 4 1000 м дождь со снегом 10/0 600 м
[As op]
-0.5 -0.9 97 -6 -6 очень
холодно
1013.5 992.2
00 21.04 С 5 1000 м дождь со снегом 10/0 600 м
[As op]
-0.5 -0.9 97 -7 -7 очень
холодно
1014.1 992.8
03 21.04 С 5 1000 м дождь со снегом 10/0 600 м
[As op]
-0.6 -1.0 97 -7 -7 очень
холодно
1013.8 992.5
06 21.04 С 6 500 м дождь со снегом 10/0 600 м
[As op]
-0.3 -0.7 97 -7 -7 очень
холодно
1014.7 993.4 -0.6 34 57
09 21.04 С 8
{14}
1000 м дождь со снегом {метель} 10/0 600 м
[As op]
-0.2 -0.6 97 -8 -7 очень
холодно
1012.7 991.5
12 21.04 С 7
{15}
1000 м дождь со снегом 10/0 600 м
[As op]
+0.2 -0.2 97 -7 -6 очень
холодно
1014.5 993.3
15 21.04 З 3
{12}
10 км в посл. час дождь со снегом 10/10 600 м
[Sc]
+2.7 +0.3 84 -1 -1 очень
холодно
1014.0 993.0
18 21.04 З 3 20 км {снег} 10/10 600 м
[Sc]
+3.2 -1.5 71 -1 -1 очень
холодно
1014.7 993.7 +4.3 6
21 21.04 З 6 20 км 4/0
[Ac trans]
+4.0 -2.8 61 -1 -1 очень
холодно
1015.5 994.5
00 22.04 З 5 20 км 6/0
[Ac trans Ci fib]
+3.6 -3.4 60 -1 -1 очень
холодно
1015.8 994.8
03 22.04 З 3 20 км 10/4 600 м
[Sc Ac trans Ci fib]
+3.4 -1.9 68 -0 -0 холодно 1015.9 994.9
06 22.04 З 3 50 км 9/0
[Ac trans]
+4.1 -2.3 63 +1 +3 холодно 1016.2 995.2 +2.8 53
09 22.04 З 4 50 км 10/4 600 м
[Sc Ac trans]
+7.3 -2.7 49 +4 +7 холодно 1016.1 995.4
12 22.04 ЮЗ 5 50 км 8/0
[Ac trans]
+9.1 -2.2 45 +6 +10 очень
холодно
1014.1 993.5
15 22.04 ЮЗ 4 50 км 8/0
[Ac trans]
+7.3 -1.1 55 +4 +5 очень
холодно
1012.7 992.0
18 22.04 ЮЗ 3 20 км 10/3 600 м
[Sc Ac trans]
+5.6 -0.9 63 +3 +3 очень
холодно
1012.2 991.4 +9.8
21 22.04 штиль 0 10 км {дождь} 10/10 600 м
[Sc]
+4.4 -1.0 68 +4 +4 холодно 1011.9 991.0
00 23.04 штиль 0 10 км {дождь} 10/10 600 м
[Cb calv]
+3.9 +0.1 76 +3 +3 прохладно 1010.4 989.5
03 23.04 штиль 0 10 км 10/10 600 м
[Sc]
+3.9 +0.9 81 +3 +3 прохладно 1009.5 988.7
06 23.04 С 2 20 км 10/8 600 м
[Sc Ac trans]
+6.3 +1.8 73 +4 +5 прохладно 1009.8 989.1 +3.3 0.0 33
09 23.04 С 4 20 км 10/10 600 м
[Sc]
+5.5 +1.2 74 +2 +2 очень
холодно
1010.4 989.7
12 23.04 С 5 20 км в посл. час дождь 10/10 600 м
[Sc]
+4.3 +0.6 77 -0 -0 очень
холодно
1011.1 990.3
15 23.04 З 4 20 км 8/3 600 м
[Cu hum Ac trans Ci fib]
+7.3 -0.2 59 +4 +5 очень
холодно
1011.1 990.5
18 23.04 СЗ 4 20 км 6/0
[Ac lent Ci]
+5.4 -0.6 65 +2 +2 очень
холодно
1012.6 991.8 +7.5 0.0
21 23.04 СЗ 5 20 км 3/0
[Ci fib]
+5.1 -1.6 62 +1 +1 очень
холодно
1014.1 993.2
00 24.04 СЗ 7 20 км ясно +3.7 -0.5 74 -2 -2 очень
холодно
1015.0 994.0
03 24.04 СЗ 7 20 км 3/0
[Ac lent Ci fib]
+2.2 -1.4 77 -4 -4 очень
холодно
1016.0 994.9
06 24.04 СЗ 5 20 км ясно +4.1 -1.5 67 -1 +2 очень
холодно
1017.8 996.8 +2.1 14
09 24.04 СЗ 6 20 км 8/8 600 м
[Cu med, cong]
+7.2 -2.8 49 +3 +5 очень
холодно
1018.4 997.6
12 24.04 З 4 20 км в посл. час ливневой дождь 6/5 600 м
[Cb calv Ci fib]
+8.5 -1.9 48 +6 +10 очень
холодно
1018.4 997.7
15 24.04 С 5 20 км в посл. час ливневой дождь 9/9 600 м
[Cb calv]
+5.7 +1.1 72 +1 +2 очень
холодно
1019.4 998.5
18 24.04 штиль 0 20 км {ливн. осадки} 8/5 600 м
[Cb calv Ac trans Ci fib]
+4.5 +1.0 78 +4 +4 очень
холодно
1020.9 999.9 +9.2 0.3
21 24.04 ЮЗ 1 20 км 10/8 600 м
[Cb calv Ac trans]
+4.4 +0.9 78 +3 +3 холодно 1021.8 1000.7
00 25.04 Ю 1 20 км 10/6 600 м
[Cb calv Ac trans]
+3.4 +0.5 81 +2 +2 холодно 1021.6 1000.5
03 25.04 штиль 0 20 км 3/0
[Ci fib]
+2.1 -0.3 84 +1 +1 холодно 1021.7 1000.5
06 25.04 Ю 2 10 км ясно +5.2 +0.8 73 +3 +8 холодно 1021.9 1000.9 +2.1 <0.5
09 25.04 Ю 5 20 км 5/0
[Ci fib]
+12.6 0.0 42 +11 +18 по сезону 1020.8 1000.4
12 25.04 ЮЗ 7
{12}
20 км 8/1 600 м
[Cu hum Ci fib]
+15.0 +0.1 36 +13 +16 по сезону 1018.8 998.6
15 25.04 ЮЗ 8
{12}
20 км 4/0
[Ci fib]
+15.8 +0.4 35 +14 +15 по сезону 1017.3 997.2
18 25.04 Ю 5 20 км 3/0
[Ci fib]
+11.4 +5.3 66 +9 +9 прохладно 1018.0 997.5 +16.2
21 25.04 Ю 7 20 км 4/0
[Ci fib]
+7.6 +1.2 64 +3 +3 холодно 1019.0 998.2
00 26.04 Ю 5 20 км ясно +6.6 +0.7 66 +3 +3 прохладно 1019.0 998.2
03 26.04 Ю 3 20 км ясно +5.0 +1.5 78 +2 +2 холодно 1019.5 998.5

 

Местоположение метеостанции Кишинев (Молдова): широта 47.02 долгота 28.98 высота над уровнем моря 173 м.

В архиве по умолчанию представлена погода в Кишиневе за последнюю неделю. Архивные данные за месяц целиком и за предыдущие месяцы, начиная с января 2011 года, Вы можете получить, выбрав интересующий диапазон дат из раскрывающегося списка и нажав кнопку "Ввод!".

Внимание! Время в таблицах - всемирное. Для получения местного времени необходимо прибавить поправку, которая в Кишиневе равна 2 ч.

Смотрите также архив погоды в соседних городах и на ближайших метеорологических станциях:

Погода в Дубоссарах (Молдова) (29 км)
Погода в Тирасполе (Молдова) (49 км)
Погода в Бравичах (Молдова) (57 км)
Погода в Штефан Водэ (Молдова) (67 км)
Погода в Корнестах (Молдова) (76 км)
Погода в Затишье (Одесская область, Украина) (76 км)
Погода в Леове (Молдова) (80 км)
Погода в Заставе (Одесская область, Украина) (81 км)
Погода в Рыбнице (Молдова) (83 км)
Погода в Комрате (Молдова) (84 км)

Пояснения к столбцам:

Ветер - указаны скорость ветра в м/с - средняя за 10 мин, порывы в срок и между сроками (в фигурных скобках) и направление, откуда дует ветер: С - северный, СВ - северо-восточный, В - восточный, ЮВ - юго-восточный, Ю - южный, ЮЗ - юго-западный, З - западный, СЗ - северо-западный.
Видимость - горизонтальная дальность видимости в метрах или километрах. При видимости от 1 до 10 км при отсутствии осадков обычно наблюдается дымка, при ухудшении видимости до 1 км и менее - туман. В сухую погоду видимость может ухудшаться дымом, пылью или мглою.
Явления - указаны атмосферные явления, наблюдавшиеся в срок или в последний час перед сроком; фигурными скобками обозначены явления, наблюдавшиеся между сроками (за 1-3 часа до срока); квадратными скобками обозначены град или гололедные отложения с указанием их диаметра в мм.
Облачность - указаны через наклонную черту общая и нижняя облачность в баллах и высота нижней границы облаков в метрах; квадратными скобками обозначены формы облаков: Ci - перистые, Cs - перисто-слоистые, Cc - перисто-кучевые, Ac - высококучевые, As - высокослоистые, Sc - слоисто-кучевые, Ns - слоисто-дождевые, Cu - кучевые, Cb - кучево-дождевые. Подробнее классификацию облаков см. в Атласе облаков (PDF).
T - Температура воздуха - температура, измеренная на высоте 2 м над землей.
Td - Температура точки росы - температура, при понижении до которой содержащийся в воздухе водяной пар достигнет насыщения.
f - Относительная влажность воздуха - влажноcть воздуха, измеренная на высоте 2 м над землей.
Te - Эффективная температура - температура, которую ощущает одетый по сезону человек в тени. Характеристика душности погоды. При расчете учитывается влияние влажности воздуха и скорости ветра на теплоощущения человека.
Tes - Эффективная температура на солнце - температура, которую ощущает человек, с поправкой на солнечный нагрев. Характеристика знойности погоды. Зависит от высоты солнца над горизонтом, облачности и скорости ветра. Ночью, в пасмурную погоду, а также при ветре 12 м/с и более поправка равна нулю.
P - Атмосферное давление - приведенное к уровню моря атмосферное давление.
Po - Атмосферное давление - измеренное на уровне метеостанции атмосферное давление.
Tmin - Минимальная температура - минимум температуры воздуха на высоте 2 м над землей.
Tmax - Максимальная температура - максимум температуры воздуха на высоте 2 м над землей.
R - Количество осадков - Количество выпавших осадков за период времени, мм. При наведении курсора мыши на число - период времени, за который выпало указанное количество осадков.
R24 - Количество осадков - Количество выпавших осадков за 24 часа, мм.
S - Снежный покров - Высота снежного покрова, см. При наведении курсора мыши на число - состояние снежного покрова и степень покрытия местности в баллах.